星链-3449 (STARLINK-3449 )

导读

STARLINK-3449是美国太空探索技术公司Starlink星链卫星互联网项目的卫星,于2022年2月21日发射入轨,属于星链低轨卫星星座组网的组成部分,旨在为全球范围提供高速低延迟宽带互联网服务,运行在近地轨道,承担全球网络覆盖补网及服务扩容任务。

Basic Information
目录编号:
51745
目录名称:
STARLINK-3449
国际标识:
2022-016AH
轨道中心:
EARTH
卫星名称:
星链-3449
卫星全名:
星链-3449 (STARLINK-3449 )
卫星状态:
在轨 (已飞行1656 天)
发射日期:
2022-02-21 UTC
国别 :
美国 (US)
星等 :
--
Orbit Information
数据来源 国际轨道数据 AOE轨道数据
星历时间 2026-09-04T10:50:10+0800
8小时前
查看轨道信息
2026-09-03T23:00:00+0800
20小时前
查看轨道信息
半长轴 6840.922km 6840.914km
偏心率 0.0001208 0.0001143
轨道倾角 53.159° 53.159°
近地点辐角 84.755° 76.412°
升交点赤经 225.992° 228.301°
平近点角 275.359° 78.055°
近地点 461.958km 461.995km
远地点 463.612km 463.559km
周期 93.849分钟 93.849分钟
每日圈数 15.343727 15.343753
Detailed Information
固有亮度:
5
最大亮度:
2.5
卫星平台:
Starlink v1.5
覆盖范围:
全球
运营商:
太空探索技术公司
运营商所在国:
美国
制造商(研发单位):
太空探索技术公司
制造商所在国:
美国
使用方式:
暂无
Satellite Introduction
星链(Starlink)计划是由太空探索技术公司(SpaceX)提出的一个巨型低轨卫星互联网星座项目,计划在2019年至2024年间在太空搭建由约1.2万颗卫星组成的“星链”网络,其中1584颗将部署在地球上空550千米处的近地轨道,并从2020年开始工作。该卫星仍在工作。
2D Orbit Map
3D Orbit Map
Orbit Altitude Analysis Chart
Orbit Inclination Analysis Chart
Orbit Comprehensive Analysis Chart
View Comprehensive Chart
Conjunction Data List
Event ID Objects TCA Miss Dist (km) Collision Risk Probability Collision Risk Index (CRI) Action
CDM_260904-210005-174506-809821
2026-09-04T
21:00:08+0000
0.343 km
远距离
3.273491E-4 高风险 0.85
CDM_260906-003005-174506-587221
2026-09-06T
00:30:18+0000
0.388 km
远距离
1.811864E-4 高风险 0.8
CDM_260906-042405-174506-587221
2026-09-06T
04:24:47+0000
0.533 km
远距离
8.405837E-5 中风险 0.73
CDM_260905-212905-174506-689621
2026-09-05T
21:29:58+0000
0.828 km
远距离
2.394943E-5 中风险 0.63
CDM_260905-165205-174505-702321
OBJECT V (57023)
2026-09-05T
16:52:59+0000
1.050 km
极远距离
2.22295E-5 中风险 0.62
CDM_260906-073605-174506-924721
2026-09-06T
07:36:06+0000
0.604 km
远距离
1.949205E-5 中风险 0.61
CDM_260905-173505-174506-689621
2026-09-05T
17:35:29+0000
1.052 km
极远距离
1.057487E-5 中风险 0.55
CDM_260905-212005-174506-305021
2026-09-05T
21:20:25+0000
1.145 km
极远距离
9.814681E-6 低风险 0.55
CDM_260906-103705-174506-305021
2026-09-06T
10:37:40+0000
1.183 km
极远距离
8.735636E-6 低风险 0.54
CDM_260906-081605-174506-817921
2026-09-06T
08:16:34+0000
1.229 km
极远距离
7.975326E-6 低风险 0.53